EW5390 Weather Reports


time (UTC)temp
C
wind
direction
speed
KPH
gust
KPH
rain 1hr
cm
rain 24hr
cm
rain mn
cm
humidity
%
barometer
mb
20260504190117 21 248 1.6 8.0 0.00 0.03 0.03 37 1012.0
20260504185552 21 272 3.2 8.0 0.00 0.03 0.03 39 1012.0
20260504185051 21 303 1.6 11.3 0.00 0.03 0.03 39 1012.1
20260504184559 21 315 4.8 11.3 0.00 0.03 0.03 38 1012.2
20260504184056 21 310 1.6 12.9 0.00 0.03 0.03 37 1012.2
20260504183550 21 316 6.4 12.9 0.00 0.03 0.03 37 1012.3
20260504183056 21 318 3.2 11.3 0.00 0.03 0.03 37 1012.3
20260504182552 21 321 3.2 8.0 0.00 0.03 0.03 38 1012.3
20260504182053 21 311 1.6 11.3 0.00 0.03 0.03 40 1012.3
20260504181558 21 311 3.2 11.3 0.00 0.03 0.03 39 1012.3
20260504181051 21 317 1.6 6.4 0.00 0.03 0.03 39 1012.4
20260504180554 21 230 1.6 6.4 0.00 0.03 0.03 38 1012.4
20260504180144 21 257 1.6 12.9 0.00 0.03 0.03 39 1012.5
20260504175553 20 0 1.6 14.5 0.00 0.03 0.03 37 1012.6
20260504175059 21 315 6.4 14.5 0.00 0.03 0.03 39 1012.7
20260504174556 21 313 4.8 12.9 0.00 0.03 0.03 39 1012.7
20260504174054 21 341 1.6 8.0 0.00 0.03 0.03 39 1012.8
20260504173550 21 295 1.6 11.3 0.00 0.03 0.03 38 1013.0
20260504173113 21 315 1.6 11.3 0.00 0.03 0.03 38 1013.0
20260504172554 20 311 4.8 11.3 0.00 0.03 0.03 39 1013.1
20260504172053 20 119 3.2 8.0 0.00 0.03 0.03 38 1013.2
20260504171558 20 314 1.6 8.0 0.00 0.03 0.03 38 1013.3
20260504171054 20 55 1.6 8.0 0.00 0.03 0.03 39 1013.2
20260504170551 20 312 1.6 6.4 0.00 0.03 0.03 40 1013.3
20260504151055 19 308 1.6 8.0 0.00 0.03 0.03 47 1014.2
20260504150555 19 316 3.2 8.0 0.00 0.03 0.03 47 1014.2
20260504141055 17 307 3.2 8.0 0.00 0.03 0.03 59 1014.6
20260504140556 17 316 1.6 8.0 0.00 0.03 0.03 59 1014.5
20260504140128 17 298 1.6 8.0 0.00 0.03 0.03 61 1014.5
20260504130555 14 336 1.6 4.8 0.00 0.03 0.03 78 1015.2
20260504120112 11 0 0.0 3.2 0.00 0.03 0.03 87 1015.6
20260504110557 10 158 0.0 3.2 0.00 0.03 0.03 89 1015.8
20260504100553 10 0 0.0 0.0 0.00 0.03 0.03 89 1015.9
20260504081555 8 0 0.0 1.6 0.00 0.00 0.00 83 1016.0
20260504081054 8 0 0.0 1.6 0.00 0.00 0.00 83 1016.1
20260504080554 8 154 0.0 1.6 0.00 0.00 0.00 83 1016.0
20260504050554 7 0 0.0 0.0 0.00 0.00 0.00 71 1016.2
20260504050136 7 0 0.0 0.0 0.00 0.00 0.00 71 1016.2
20260504045553 7 0 0.0 0.0 0.00 0.00 0.00 70 1016.2
20260504045053 7 0 0.0 0.0 0.00 0.00 0.00 70 1016.2
20260504044558 7 0 0.0 0.0 0.00 0.00 0.00 69 1016.2
20260504044053 7 0 0.0 0.0 0.00 0.00 0.00 68 1016.0
20260504043553 7 0 0.0 0.0 0.00 0.00 0.00 68 1016.1
20260504043100 7 0 0.0 0.0 0.00 0.00 0.00 68 1016.0
20260504042554 7 0 0.0 0.0 0.00 0.00 0.00 67 1016.0
20260504042053 7 0 0.0 0.0 0.00 0.00 0.00 67 1016.0
20260504041552 7 0 0.0 0.0 0.00 0.00 0.00 68 1015.9
20260504041053 7 0 0.0 0.0 0.00 0.00 0.00 67 1015.9
20260504040553 7 0 0.0 0.0 0.00 0.00 0.00 68 1015.7
20260504040105 7 0 0.0 0.0 0.00 0.00 0.00 68 1015.6
20260504035551 8 0 0.0 0.0 0.00 0.00 0.00 67 1015.8
20260504035056 8 0 0.0 0.0 0.00 0.00 0.00 66 1015.7
20260504034553 8 0 0.0 0.0 0.00 0.00 0.00 66 1015.6
20260504034054 8 0 0.0 0.0 0.00 0.00 0.00 67 1015.6
20260504033553 8 0 0.0 0.0 0.00 0.00 0.00 67 1015.7
20260504033057 8 0 0.0 0.0 0.00 0.00 0.00 67 1015.6
20260504032554 8 0 0.0 0.0 0.00 0.00 0.00 66 1015.5
20260504032056 8 0 0.0 0.0 0.00 0.00 0.00 66 1015.4
20260504031623 8 0 0.0 0.0 0.00 0.00 0.00 66 1015.4
20260504031053 8 0 0.0 0.0 0.00 0.00 0.00 66 1015.4
20260504030553 8 0 0.0 0.0 0.00 0.00 0.00 67 1015.5
20260504030054 8 0 0.0 0.0 0.00 0.00 0.00 67 1015.4
20260504025550 8 0 0.0 0.0 0.00 0.00 0.00 66 1015.5
20260504025056 8 0 0.0 0.0 0.00 0.00 0.00 66 1015.5
20260504024553 8 0 0.0 0.0 0.00 0.00 0.00 66 1015.4
20260504024053 8 0 0.0 0.0 0.00 0.00 0.00 66 1015.5
20260504023553 8 0 0.0 0.0 0.00 0.00 0.00 66 1015.4
20260504023055 8 0 0.0 0.0 0.00 0.00 0.00 65 1015.4
20260504022552 8 0 0.0 0.0 0.00 0.00 0.00 64 1015.5
20260504022053 8 0 0.0 0.0 0.00 0.00 0.00 63 1015.5
20260504021605 8 0 0.0 0.0 0.00 0.00 0.00 63 1015.5
20260504021053 8 0 0.0 0.0 0.00 0.00 0.00 63 1015.4
20260504020553 9 0 0.0 0.0 0.00 0.00 0.00 63 1015.4
20260504020051 9 323 0.0 0.0 0.00 0.00 0.00 63 1015.4
20260504015554 9 323 0.0 0.0 0.00 0.00 0.00 61 1015.4
20260504015054 9 0 0.0 0.0 0.00 0.00 0.00 61 1015.4
20260504014552 9 0 0.0 0.0 0.00 0.00 0.00 61 1015.3
20260504014053 9 0 0.0 0.0 0.00 0.00 0.00 60 1015.2
20260504013553 10 0 0.0 0.0 0.00 0.00 0.00 59 1015.3
20260504013102 10 0 0.0 0.0 0.00 0.00 0.00 59 1015.3
20260504012556 10 323 0.0 0.0 0.00 0.00 0.00 58 1015.2
20260504012051 10 0 0.0 0.0 0.00 0.00 0.00 58 1015.2
20260504011557 10 0 0.0 0.0 0.00 0.00 0.00 57 1015.1
20260504011053 10 0 0.0 0.0 0.00 0.00 0.00 57 1015.1
20260504010553 10 0 0.0 0.0 0.00 0.00 0.00 57 1015.0
20260504010113 10 0 0.0 0.0 0.00 0.00 0.00 57 1014.9
20260504005554 10 0 0.0 0.0 0.00 0.00 0.00 56 1014.9
20260504005051 10 323 0.0 0.0 0.00 0.00 0.00 56 1014.9
20260504004558 10 323 0.0 0.0 0.00 0.00 0.00 54 1014.9
20260504004054 11 323 0.0 0.0 0.00 0.00 0.00 54 1014.7
20260504003551 11 0 0.0 0.0 0.00 0.00 0.00 54 1014.7
20260504003055 11 0 0.0 0.0 0.00 0.00 0.00 53 1014.7
20260504002553 11 0 0.0 0.0 0.00 0.00 0.00 53 1014.6
20260504002053 11 323 0.0 0.0 0.00 0.00 0.00 52 1014.5
20260504001609 12 0 0.0 0.0 0.00 0.00 0.00 51 1014.5
20260504001055 12 0 0.0 0.0 0.00 0.00 0.00 50 1014.4
20260504000552 12 0 0.0 0.0 0.00 0.00 0.00 49 1014.3
20260504000059 12 323 0.0 0.0 0.00 0.00 0.00 48 1014.3
20260503235554 13 0 0.0 0.0 0.00 0.00 0.00 46 1014.3
20260503235053 13 0 0.0 0.0 0.00 0.00 0.00 46 1014.2
20260503234554 13 0 0.0 0.0 0.00 0.00 0.00 45 1014.2
20260503234054 13 0 0.0 0.0 0.00 0.00 0.00 44 1014.3
20260503233557 14 0 0.0 0.0 0.00 0.00 0.00 43 1014.2
20260503233058 14 0 0.0 1.6 0.00 0.00 0.00 43 1014.2
20260503232553 14 0 0.0 3.2 0.00 0.00 0.00 41 1014.2
20260503232053 15 0 0.0 4.8 0.00 0.00 0.00 43 1014.3
20260503231556 15 323 1.6 4.8 0.00 0.00 0.00 41 1014.3
20260503231054 15 330 1.6 8.0 0.00 0.00 0.00 40 1014.2
20260503230557 15 306 1.6 8.0 0.00 0.00 0.00 44 1014.2
20260503230056 15 245 1.6 9.7 0.00 0.00 0.00 43 1014.0
20260503225553 15 323 1.6 9.7 0.00 0.00 0.00 43 1014.1
20260503225057 15 311 3.2 9.7 0.00 0.00 0.00 41 1014.0
20260503224558 15 333 3.2 8.0 0.00 0.00 0.00 45 1014.1
20260503224053 15 0 3.2 9.7 0.00 0.00 0.00 42 1014.0
20260503223553 15 311 1.6 9.7 0.00 0.00 0.00 41 1014.1
20260503223054 15 266 3.2 9.7 0.00 0.00 0.00 42 1014.1
20260503222553 15 30 1.6 11.3 0.00 0.00 0.00 40 1014.0
20260503222053 15 325 3.2 11.3 0.00 0.00 0.00 40 1014.1
20260503221556 15 254 4.8 11.3 0.00 0.00 0.00 41 1014.1
20260503221054 15 316 3.2 9.7 0.00 0.00 0.00 40 1014.0
20260503220553 15 323 3.2 9.7 0.00 0.00 0.00 40 1014.0
20260503220054 15 310 1.6 14.5 0.00 0.00 0.00 42 1014.1
20260503215553 15 323 1.6 14.5 0.00 0.00 0.00 40 1014.1
20260503215053 15 326 8.0 17.7 0.00 0.00 0.00 39 1014.1
20260503214557 15 315 4.8 17.7 0.00 0.00 0.00 42 1014.2
20260503214057 15 311 4.8 17.7 0.00 0.00 0.00 40 1014.0
20260503213553 15 316 3.2 9.7 0.00 0.00 0.00 42 1014.0
20260503213125 15 291 1.6 6.4 0.00 0.00 0.00 43 1013.9
20260503212556 15 319 1.6 11.3 0.00 0.00 0.00 41 1013.9
20260503212056 15 272 1.6 11.3 0.00 0.00 0.00 42 1014.0
20260503211619 15 326 3.2 11.3 0.00 0.00 0.00 40 1014.0
20260503211053 14 297 4.8 16.1 0.00 0.00 0.00 41 1013.9
20260503210555 14 0 3.2 16.1 0.00 0.00 0.00 40 1013.8
20260503210054 14 49 3.2 12.9 0.00 0.00 0.00 40 1014.0
20260503205554 14 307 4.8 12.9 0.00 0.00 0.00 41 1013.9
20260503205051 15 307 1.6 11.3 0.00 0.00 0.00 41 1013.9
20260503204608 15 331 1.6 11.3 0.00 0.00 0.00 43 1014.0
20260503204051 14 309 4.8 12.9 0.00 0.00 0.00 40 1013.9
20260503203553 14 324 3.2 12.9 0.00 0.00 0.00 43 1013.9
20260503203057 14 289 4.8 16.1 0.00 0.00 0.00 40 1014.0
20260503202553 14 0 3.2 16.1 0.00 0.00 0.00 40 1014.1
20260503202053 14 309 1.6 12.9 0.00 0.00 0.00 41 1014.0
20260503201556 14 294 3.2 12.9 0.00 0.00 0.00 40 1014.1
20260503201055 14 276 3.2 11.3 0.00 0.00 0.00 39 1014.1
20260503200553 14 320 6.4 12.9 0.00 0.00 0.00 39 1014.2
20260503200059 14 275 3.2 14.5 0.00 0.00 0.00 40 1014.3
20260503195553 14 297 6.4 14.5 0.00 0.00 0.00 41 1014.3
20260503195101 13 4 6.4 14.5 0.00 0.00 0.00 39 1014.3
20260503194553 13 309 3.2 14.5 0.00 0.00 0.00 40 1014.3
20260503194128 13 304 8.0 14.5 0.00 0.00 0.00 39 1014.3
20260503193554 13 283 4.8 11.3 0.00 0.00 0.00 42 1014.2
20260503193057 13 300 3.2 12.9 0.00 0.00 0.00 40 1014.2
20260503192552 13 245 3.2 17.7 0.00 0.00 0.00 40 1014.3
20260503192052 13 304 4.8 17.7 0.00 0.00 0.00 39 1014.4
20260503191603 13 330 3.2 11.3 0.00 0.00 0.00 41 1014.3
20260503191054 13 307 3.2 14.5 0.00 0.00 0.00 42 1014.3
20260503190556 13 259 6.4 14.5 0.00 0.00 0.00 40 1014.4